Live-Position
3D-Globus wird geladen...
Über Starlink 1695
Group: 3 satellites
Beschreibung wird geladen...
Nächste Überflüge
Passes for default location (London). Set your location on the main map for personalized predictions.
Höhenverlauf
Loading altitude history...
No altitude history available
Zweizeiliger Elementsatz
1 46329U 20062E 26121.12576594 .00113748 00000-0 10967-2 0 9994
2 46329 53.0441 81.0669 0005712 48.5129 311.6375 15.65661161313053
Epoch: 1. Mai 2026 •
Age: 22 hours
Aktueller Status
Höhe 373.7 km
Geschwindigkeit 7.69 km/s
Subsatellitenpunkt 52.15°N,
81.13°W
Startdatum 3. Sept. 2020
Alter 5.6 years
Typ internet
Startgruppe
Falcon 9 •
Launch 11 •
20 satellites
Starlink 1654
46326
Starlink 1686 46328
Starlink 1719 46331
Starlink 1727 46335
Starlink 1759 46340
Starlink 1762 46342
Starlink 1764 46343
Starlink 1547 46347
Starlink 1553 46348
Starlink 1646 46351
Starlink 1653 46352
Starlink 1656 46353
Starlink 1661 46355
Starlink 1665 46356
Starlink 1666 46357
Starlink 1707 46359
Starlink 1724 46375
Starlink 1770 46383
Starlink 1771 46384
Technische Details
Klassifizierung Payload
Masse 260.00 kg
Trockenmasse 248.00 kg
Gesamtmasse 260.00 kg
Länge 0.20 m
Durchmesser 2.80 m
Spannweite 9.00 m
Form Box + pan
Hersteller SPXS
Bus-Typ Starlink
Phasenstatus In Orbit
Besitzer/Staat SPXS/US
Most Searched
Loading...